sat.trackr.live / text

‹ back to catalog

STARLINK-34387

NORAD 64315 · 2025-123AA

PAYLOAD ACTIVE UNKNOWN

§ Identity

Operator
Country
US
Launch date
2025-06-08
Launch site
AFWTR
Launch vehicle
Mass (kg)
RCS (m²)

Purposes: comms

External: N2YO · Heavens-Above · Gunter

§ Orbital elements

Epoch: 2026-05-25T00:21:59.169024Z

Period
96.11 min
Inclination
70.0018°
Eccentricity
0.0002681
Mean motion
14.98336870 rev/d
Perigee alt
570.2 km
Apogee alt
573.9 km
Semi-major
6,950.2 km
B*
2.6503e-4
RAAN
1.9221°
Arg perigee
268.9777°
Mean anomaly
91.1075°
Rev number
5,305

§ Raw data

STARLINK-343871 64315U 25123AA  26145.01526816  .00003071  00000+0  26503-3 0  99982 64315  70.0018   1.9221 0002681 268.9777  91.1075 14.98336870 53050

JSON: /api/v1/satellites/64315 · /tle

For live sub-satellite position, see the globe view (requires WebGL).

§ Visibility from observer

Set your observer location to see the next 7 days of passes ≥ 10°. The values pass through the URL so the page stays shareable.

No JS? Fill the form by hand. The geolocation button needs JavaScript.